Location: Fayetteville
(35.0530°N, 78.8790°W)
Time: 07:09:40
(UTC-04:00)

OTV 5 (USA 277) - Visible Passes

Search period start: 17 June 2019 00:00
Search period end: 27 June 2019 00:00
Orbit: 310 x 325 km, 54.5° (Epoch: 08 May)

Date Brightness Start Highest point End Pass type
(mag) Time Alt. Az. Time Alt. Az. Time Alt. Az.
20 Jun ? 22:10:32 10° SW 22:13:16 80° SE 22:16:01 10° NE visible
21 Jun ? 22:25:35 10° WSW 22:28:02 28° NW 22:30:30 10° NNE visible
22 Jun ? 04:48:53 10° N 04:50:46 17° NE 04:52:38 10° E visible
22 Jun ? 21:05:54 10° SSW 21:08:29 39° SE 21:11:06 10° ENE visible
22 Jun ? 22:41:48 10° WNW 22:42:58 12° NW 22:44:09 10° N visible
23 Jun ? 05:02:59 10° NNW 05:05:38 45° NE 05:08:16 10° ESE visible
23 Jun ? 21:20:29 10° WSW 21:23:10 51° NW 21:25:52 10° NNE visible
24 Jun ? 03:44:53 10° NNE 03:45:49 11° NE 03:46:45 10° NE visible
24 Jun ? 05:17:42 10° WNW 05:20:21 43° SW 05:22:56 10° SSE visible
24 Jun ? 21:36:02 10° W 21:38:02 18° NW 21:40:02 10° N visible
25 Jun ? 03:58:22 10° NNW 04:00:46 26° NE 04:03:09 10° ESE visible
26 Jun ? 04:12:48 10° NW 04:13:32 16° NW 04:13:32 16° NW visible
